Location: Unspecified
(33.0492°N, 0.0000°E)
Time: 13:07:04
(UTC+00:00)

Tiangong - Visible Passes

Search period start: 04 April 2026 00:00
Search period end: 14 April 2026 00:00
Orbit: 380 x 386 km, 41.5° (Epoch: 28 March)

Date Brightness Start Highest point End Pass type
(mag) Time Alt. Az. Time Alt. Az. Time Alt. Az.
4 Apr 0.2 19:50:29 10° NW 19:52:45 18° N 19:53:50 15° NNE visible
5 Apr 0.1 18:49:40 10° WNW 18:52:09 21° N 18:54:38 10° NE visible
5 Apr 0.7 20:27:20 10° NW 20:28:34 16° NNW 20:28:34 16° NNW visible
6 Apr 0.3 19:26:46 10° NW 19:28:57 17° N 19:31:03 10° NE visible
7 Apr -0.1 20:03:13 10° NW 20:05:38 21° N 20:05:38 21° N visible
8 Apr 0.1 19:02:46 10° NW 19:05:02 18° N 19:07:19 10° NE visible
8 Apr 0.8 20:39:16 10° NW 20:40:12 17° NW 20:40:12 17° NW visible
9 Apr -0.7 19:38:54 10° NW 19:41:41 28° NNE 19:42:34 24° NE visible
10 Apr -0.9 20:14:56 10° WNW 20:17:06 41° NW 20:17:06 41° NW visible
11 Apr -1.4 19:14:27 10° NW 19:17:28 43° NNE 19:19:30 18° E visible
11 Apr 1.3 20:51:29 10° W 20:51:39 11° W 20:51:39 11° W visible
12 Apr -1.8 19:50:36 10° WNW 19:53:39 51° SSW 19:54:04 47° S visible
13 Apr -2.1 18:49:55 10° WNW 18:53:04 77° NNE 18:56:12 10° ESE visible
13 Apr 0.8 20:27:59 10° WSW 20:28:41 12° WSW 20:28:41 12° WSW visible
